Terminal Aerodrome Forecast
Issued by NWS

Home | Current Version | Previous Version | Text Only | Print | Product List | Glossary On
Versions: 1 2 3 4 5 6 7 8 9 10 11 12 13 14 15 16 17 18 19 20 21 22 23 24 25 26 27 28 29 30 31 32 33 34 35 36 37 38 39 40 41 42 43 44 45 46 47
000
FTUS44 KBMX 270533
TAFASN
TAF
KASN 270533Z 2706/2806 16010G20KT P6SM SCT025 BKN035
     FM271000 18017G27KT 4SM TSRA BKN008 BKN015CB OVC100
     FM271300 21012KT P6SM SCT008 OVC012
     FM271700 25008KT P6SM BKN018
     FM272000 25011KT P6SM BKN070
     FM280100 00000KT P6SM SKC=

USA.gov is the U.S. government's official web portal to all federal, state and local government web resources and services.